Total_Precipitation_Accumulation
1.98 1.97 1.93 1.90 1.81 1.90 2.06 2.25 2.29 2.63 2.74 2.38 2.01 1.89 1.87 1.94 1.86 1.84 1.74 1.66 1.59 1.72 2.08 2.31 2.16 1.91 1.62 1.38 1.25 1.14 1.03 0.89 0.80 0.70 0.71 0.80 0.80 0.74 0.67 0.60 0.54 0.47 0.42
2.09 2.19 2.06 2.04 1.91 1.87 2.03 2.21 2.38 2.85 2.89 2.70 2.27 2.04 1.96 1.93 1.77 1.70 1.76 1.94 1.77 1.66 1.79 2.06 2.27 2.22 2.05 1.80 1.53 1.33 1.19 1.09 0.94 0.72 0.61 0.68 0.72 0.70 0.69 0.67 0.61 0.51 0.43
2.07 2.09 1.93 1.84 1.88 2.02 2.18 2.22 2.37 2.69 2.45 2.43 2.23 2.07 1.88 1.70 1.53 1.47 1.64 1.81 1.70 1.64 1.77 1.90 2.07 2.16 2.25 2.25 2.08 1.88 1.54 1.31 1.13 0.89 0.71 0.65 0.68 0.65 0.63 0.66 0.65 0.57 0.46
1.98 2.13 1.95 1.78 2.07 2.15 2.24 2.45 2.58 2.61 2.57 2.58 2.35 2.02 1.80 1.67 1.36 1.26 1.28 1.38 1.56 1.37 1.62 1.85 1.90 1.94 2.16 2.41 2.61 2.62 2.22 1.78 1.47 1.22 0.99 0.84 0.83 0.77 0.65 0.61 0.64 0.57 0.43
2.05 2.31 2.27 2.33 2.41 2.44 2.44 2.34 2.63 2.63 2.55 2.56 2.28 2.00 1.64 1.45 1.25 1.12 1.06 1.02 1.15 1.22 1.30 1.45 1.60 1.69 2.04 2.58 2.89 3.02 2.92 2.49 1.95 1.64 1.48 1.31 1.22 1.01 0.78 0.67 0.67 0.64 0.52
2.16 2.50 2.36 2.32 2.42 2.53 2.54 2.49 2.50 2.51 2.29 2.27 2.11 1.87 1.49 1.17 1.08 0.99 0.87 0.85 0.89 0.85 1.01 1.23 1.45 1.31 1.65 2.18 2.53 2.91 3.18 3.03 2.47 2.11 1.97 1.84 1.73 1.46 1.01 0.79 0.74 0.72 0.66
2.15 2.45 2.34 2.44 2.41 2.41 2.41 2.43 2.45 2.31 1.96 2.15 2.25 1.83 1.37 1.07 1.05 0.82 0.74 0.77 0.78 0.77 0.95 1.22 1.39 1.37 1.30 1.39 1.71 2.11 2.67 2.94 2.73 2.38 2.22 2.09 2.10 1.92 1.39 1.06 0.92 0.78 0.78
2.31 2.31 2.37 2.33 2.36 2.44 2.34 2.29 2.35 2.18 1.83 1.96 2.13 2.18 1.62 1.27 0.98 0.70 0.75 0.84 0.93 1.00 1.02 1.11 1.26 1.38 1.36 1.58 1.45 1.40 1.87 2.49 2.87 2.80 2.52 2.11 1.93 1.83 1.62 1.46 1.26 1.05 1.00
2.49 2.44 2.38 2.27 2.19 2.06 2.02 2.04 2.08 2.08 1.92 1.83 2.00 2.27 1.88 1.43 1.19 0.85 0.80 0.87 1.06 1.25 1.22 1.24 1.24 1.37 1.47 1.75 1.88 1.61 1.44 1.75 2.43 3.02 3.02 2.50 1.96 1.69 1.63 1.62 1.59 1.41 1.28
2.34 2.10 1.95 1.97 1.95 1.88 1.82 1.61 1.68 1.78 1.73 1.57 1.70 1.80 1.84 1.86 1.77 1.20 0.87 0.82 1.00 1.15 1.26 1.18 1.16 1.28 1.45 1.65 1.89 1.78 1.42 1.32 1.63 2.41 2.88 2.74 2.31 1.85 1.63 1.67 1.94 1.92 1.58
2.03 1.74 1.64 1.70 1.69 1.63 1.54 1.46 1.54 1.46 1.39 1.36 1.50 1.67 1.77 1.83 1.82 1.69 1.30 1.20 1.17 1.03 1.06 1.10 1.22 1.29 1.32 1.58 1.87 1.70 1.63 1.49 1.40 1.53 1.90 2.20 2.31 2.11 1.98 2.13 2.47 2.63 2.36
1.69 1.45 1.35 1.45 1.54 1.55 1.51 1.46 1.48 1.37 1.37 1.45 1.42 1.51 1.69 1.67 1.68 1.78 1.51 1.38 1.29 1.05 1.04 1.15 1.17 1.32 1.38 1.50 1.54 1.67 1.60 1.38 1.26 1.22 1.30 1.54 1.79 1.90 1.97 2.19 2.62 2.98 3.06
1.40 1.33 1.35 1.42 1.45 1.50 1.43 1.43 1.43 1.44 1.54 1.56 1.48 1.46 1.56 1.58 1.63 1.78 1.73 1.56 1.45 1.28 1.30 1.30 1.17 1.16 1.14 1.28 1.36 1.37 1.21 1.10 0.99 0.93 0.95 1.02 1.16 1.38 1.62 1.88 2.28 2.70 2.97
1.44 1.47 1.44 1.37 1.34 1.39 1.33 1.52 1.45 1.46 1.57 1.58 1.42 1.58 1.60 1.60 1.79 1.96 2.02 2.00 1.79 1.57 1.52 1.52 1.41 1.27 1.23 1.23 1.25 1.22 1.06 0.97 0.80 0.74 0.75 0.77 0.84 0.97 1.19 1.39 1.66 1.95 2.20
1.54 1.65 1.60 1.51 1.43 1.45 1.56 1.77 1.74 1.73 1.86 1.80 1.76 1.88 1.83 1.75 1.82 1.89 1.99 2.08 2.15 1.93 1.74 1.70 1.57 1.36 1.26 1.27 1.24 1.13 1.17 1.04 0.84 0.74 0.68 0.64 0.68 0.77 0.83 0.91 1.07 1.26 1.46
1.46 1.63 1.71 1.67 1.60 1.60 1.74 1.89 1.89 2.01 2.11 2.07 2.10 2.17 2.10 1.96 1.97 2.00 1.99 2.10 2.27 2.21 1.90 1.59 1.48 1.32 1.29 1.18 1.23 1.13 1.11 1.04 0.90 0.79 0.69 0.64 0.64 0.67 0.67 0.70 0.79 0.89 1.05
1.45 1.52 1.63 1.71 1.68 1.68 1.77 1.82 1.80 2.01 2.11 2.11 2.08 2.06 1.96 1.98 1.97 1.91 1.98 2.12 2.28 2.31 2.01 1.65 1.61 1.60 1.57 1.45 1.41 1.31 1.20 1.14 0.96 0.88 0.77 0.72 0.68 0.67 0.68 0.69 0.71 0.74 0.81
1.51 1.55 1.63 1.66 1.57 1.57 1.71 1.74 1.80 1.95 1.99 1.94 1.89 1.87 1.69 1.73 1.77 1.70 1.81 1.89 1.97 2.16 2.10 1.87 1.87 1.89 1.85 1.73 1.67 1.61 1.45 1.24 1.03 0.97 0.84 0.78 0.75 0.70 0.68 0.68 0.71 0.75 0.80
1.51 1.55 1.56 1.57 1.60 1.69 1.75 1.72 1.69 1.66 1.63 1.67 1.82 1.89 1.70 1.67 1.60 1.61 1.65 1.63 1.68 1.82 1.94 1.89 1.88 1.96 1.92 1.89 1.78 1.61 1.50 1.36 1.10 1.02 0.97 0.89 0.82 0.75 0.71 0.70 0.71 0.77 0.84
1.42 1.51 1.56 1.63 1.68 1.71 1.70 1.71 1.71 1.62 1.53 1.53 1.61 1.64 1.60 1.60 1.56 1.64 1.59 1.57 1.58 1.69 1.79 1.81 1.83 1.97 1.99 1.91 1.90 1.72 1.70 1.58 1.41 1.18 1.10 0.99 0.98 0.95 0.89 0.81 0.76 0.77 0.87
1.47 1.55 1.59 1.61 1.56 1.54 1.44 1.42 1.44 1.40 1.43 1.36 1.30 1.29 1.31 1.40 1.41 1.41 1.32 1.45 1.58 1.64 1.68 1.71 1.74 1.91 2.08 2.13 1.96 1.87 1.93 1.88 1.71 1.46 1.36 1.18 1.07 1.01 0.97 0.93 0.88 0.83 0.85
1.48 1.54 1.53 1.58 1.54 1.29 1.37 1.37 1.37 1.48 1.55 1.52 1.44 1.34 1.26 1.23 1.17 1.12 1.09 1.17 1.37 1.51 1.57 1.64 1.65 1.78 1.98 2.18 2.23 2.17 2.07 2.00 1.95 1.81 1.73 1.60 1.39 1.29 1.19 1.09 1.04 0.98 0.92
1.61 1.57 1.52 1.50 1.51 1.54 1.56 1.40 1.27 1.27 1.36 1.40 1.40 1.38 1.23 1.12 1.20 1.14 1.14 1.12 1.12 1.22 1.31 1.45 1.54 1.58 1.73 1.95 2.16 2.12 2.20 2.24 2.23 2.20 2.22 2.15 1.86 1.65 1.43 1.26 1.10 0.89 0.82
1.78 1.73 1.65 1.55 1.58 1.59 1.53 1.32 1.25 1.20 1.25 1.29 1.32 1.33 1.31 1.23 1.23 1.30 1.31 1.25 1.15 1.12 1.16 1.18 1.24 1.36 1.57 1.82 2.09 2.09 2.11 2.20 2.26 2.27 2.31 2.32 2.08 1.89 1.65 1.46 1.31 1.05 0.88
1.86 1.79 1.75 1.76 1.71 1.77 1.77 1.55 1.47 1.37 1.41 1.43 1.43 1.40 1.38 1.30 1.36 1.30 1.25 1.24 1.19 1.14 1.14 1.18 1.17 1.29 1.50 1.60 1.79 1.90 1.90 1.95 1.91 1.85 1.98 2.17 2.15 2.08 1.92 1.66 1.40 1.18 0.95
1.94 1.98 1.97 1.96 1.95 1.99 2.15 1.91 1.71 1.58 1.63 1.63 1.69 1.62 1.54 1.42 1.41 1.31 1.18 1.19 1.17 1.16 1.24 1.23 1.20 1.21 1.26 1.43 1.59 1.66 1.81 1.93 1.84 1.71 1.51 1.61 1.79 1.96 2.09 1.91 1.65 1.43 1.27